Wetterdaten: Sonntag, 08.03.2015
Datum Zeit Auen-Temp. Temp. -10 cm Luftfeuchte Luftfeuchte Luftdruck Regen Wind Richtung Richtung Taupunkt Windchill Windben
08.03.2015 00:00 -4,1 C 0,9 C 78 % 78 % 1030,8 hPa 0,0 l/m 0,0 km/h (0 Bft) W-SW 247 -7,4 C -5,2 C 0,0 km/h (0 Bft)
08.03.2015 00:05 -4,3 C 1,0 C 77 % 77 % 1030,8 hPa 0,0 l/m 0,0 km/h (0 Bft) W-SW 247 -7,7 C -5,1 C 0,0 km/h (0 Bft)
08.03.2015 00:10 -4,4 C 1,0 C 77 % 77 % 1030,8 hPa 0,0 l/m 0,0 km/h (0 Bft) W-SW 247 -7,8 C -5,2 C 0,0 km/h (0 Bft)
08.03.2015 00:15 -4,3 C 1,0 C 78 % 78 % 1030,7 hPa 0,0 l/m 0,0 km/h (0 Bft) S-SO 157 -7,5 C -5,1 C 0,0 km/h (0 Bft)
08.03.2015 00:20 -4,1 C 0,9 C 78 % 78 % 1030,7 hPa 0,0 l/m 0,0 km/h (0 Bft) S-SO 157 -7,4 C -4,9 C 0,0 km/h (0 Bft)
08.03.2015 00:25 -4,4 C 1,0 C 78 % 78 % 1030,7 hPa 0,0 l/m 0,0 km/h (0 Bft) S-SO 157 -7,6 C -4,9 C 0,0 km/h (0 Bft)
08.03.2015 00:30 -4,2 C 1,0 C 78 % 78 % 1030,7 hPa 0,0 l/m 0,0 km/h (0 Bft) S-SO 157 -7,4 C -5,0 C 0,0 km/h (0 Bft)
08.03.2015 00:35 -4,2 C 1,0 C 78 % 78 % 1030,6 hPa 0,0 l/m 0,0 km/h (0 Bft) S-SO 157 -7,4 C -5,2 C 0,0 km/h (0 Bft)
08.03.2015 00:40 -4,4 C 1,0 C 78 % 78 % 1030,6 hPa 0,0 l/m 0,0 km/h (0 Bft) S-SO 157 -7,6 C -5,1 C 0,0 km/h (0 Bft)
08.03.2015 00:45 -4,4 C 1,0 C 78 % 78 % 1030,6 hPa 0,0 l/m 0,0 km/h (0 Bft) S-SO 157 -7,6 C -5,0 C 0,0 km/h (0 Bft)
08.03.2015 00:50 -4,5 C 1,0 C 78 % 78 % 1030,6 hPa 0,0 l/m 0,0 km/h (0 Bft) S-SO 157 -7,7 C -5,1 C 0,0 km/h (0 Bft)
08.03.2015 00:55 -4,6 C 1,0 C 78 % 78 % 1030,5 hPa 0,0 l/m 0,0 km/h (0 Bft) S-SO 157 -7,8 C -5,3 C 0,0 km/h (0 Bft)
08.03.2015 01:00 -4,6 C 1,0 C 78 % 78 % 1030,5 hPa 0,0 l/m 0,0 km/h (0 Bft) S-SO 157 -7,8 C -5,4 C 0,0 km/h (0 Bft)
08.03.2015 01:05 -4,7 C 1,0 C 78 % 78 % 1030,5 hPa 0,0 l/m 0,0 km/h (0 Bft) S-SO 157 -7,9 C -5,4 C 0,0 km/h (0 Bft)
08.03.2015 01:10 -4,6 C 1,0 C 78 % 78 % 1030,5 hPa 0,0 l/m 0,0 km/h (0 Bft) S 180 -7,8 C -5,4 C 0,0 km/h (0 Bft)
08.03.2015 01:15 -4,7 C 1,0 C 78 % 78 % 1030,5 hPa 0,0 l/m 0,0 km/h (0 Bft) S 180 -7,9 C -5,6 C 0,0 km/h (0 Bft)
08.03.2015 01:20 -4,8 C 1,0 C 78 % 78 % 1030,5 hPa 0,0 l/m 0,0 km/h (0 Bft) S-SO 157 -8,0 C -5,8 C 0,0 km/h (0 Bft)
08.03.2015 01:25 -4,7 C 1,0 C 79 % 79 % 1030,5 hPa 0,0 l/m 0,0 km/h (0 Bft) S-SO 157 -7,8 C -5,7 C 0,0 km/h (0 Bft)
08.03.2015 01:30 -4,3 C 1,0 C 79 % 79 % 1030,5 hPa 0,0 l/m 0,0 km/h (0 Bft) S-SO 157 -7,4 C -5,2 C 1,6 km/h (1 Bft)
08.03.2015 01:35 -4,2 C 0,9 C 79 % 79 % 1030,4 hPa 0,0 l/m 0,0 km/h (0 Bft) S-SO 157 -7,3 C -5,0 C 0,0 km/h (0 Bft)
08.03.2015 01:40 -4,3 C 0,9 C 79 % 79 % 1030,4 hPa 0,0 l/m 0,0 km/h (0 Bft) S 180 -7,4 C -5,2 C 0,0 km/h (0 Bft)
08.03.2015 01:45 -4,5 C 1,0 C 79 % 79 % 1030,4 hPa 0,0 l/m 0,0 km/h (0 Bft) S 180 -7,6 C -5,4 C 0,0 km/h (0 Bft)
08.03.2015 01:50 -4,8 C 1,0 C 79 % 79 % 1030,4 hPa 0,0 l/m 0,0 km/h (0 Bft) S-SO 157 -7,9 C -5,7 C 0,0 km/h (0 Bft)
08.03.2015 01:55 -5,0 C 1,0 C 79 % 79 % 1030,2 hPa 0,0 l/m 0,0 km/h (0 Bft) S-SO 157 -8,1 C -5,7 C 0,0 km/h (0 Bft)
08.03.2015 02:00 -4,8 C 1,0 C 79 % 79 % 1030,2 hPa 0,0 l/m 0,0 km/h (0 Bft) S-SO 157 -7,9 C -5,4 C 0,0 km/h (0 Bft)
08.03.2015 02:05 -5,0 C 1,0 C 79 % 79 % 1030,2 hPa 0,0 l/m 0,0 km/h (0 Bft) S-SO 157 -8,1 C -5,4 C 0,0 km/h (0 Bft)
08.03.2015 02:10 -5,0 C 1,0 C 79 % 79 % 1030,2 hPa 0,0 l/m 0,0 km/h (0 Bft) S-SO 157 -8,1 C -5,7 C 0,0 km/h (0 Bft)
08.03.2015 02:15 -4,9 C 1,0 C 79 % 79 % 1030,2 hPa 0,0 l/m 0,0 km/h (0 Bft) S-SO 157 -8,0 C -5,8 C 0,0 km/h (0 Bft)
08.03.2015 02:20 -4,9 C 1,0 C 79 % 79 % 1030,2 hPa 0,0 l/m 0,0 km/h (0 Bft) S-SO 157 -8,0 C -5,9 C 0,0 km/h (0 Bft)
08.03.2015 02:25 -4,8 C 1,0 C 79 % 79 % 1030,2 hPa 0,0 l/m 0,0 km/h (0 Bft) S-SO 157 -7,9 C -5,9 C 0,0 km/h (0 Bft)
08.03.2015 02:30 -4,8 C 1,0 C 79 % 79 % 1030,2 hPa 0,0 l/m 0,0 km/h (0 Bft) S-SO 157 -7,9 C -5,8 C 0,0 km/h (0 Bft)
08.03.2015 02:35 -4,7 C 1,0 C 79 % 79 % 1030,1 hPa 0,0 l/m 0,0 km/h (0 Bft) S-SO 157 -7,8 C -5,6 C 0,0 km/h (0 Bft)
08.03.2015 02:40 -4,9 C 1,0 C 79 % 79 % 1030,1 hPa 0,0 l/m 0,0 km/h (0 Bft) S-SO 157 -8,0 C -5,7 C 0,0 km/h (0 Bft)
08.03.2015 02:45 -5,0 C 1,0 C 79 % 79 % 1030,1 hPa 0,0 l/m 0,0 km/h (0 Bft) S-SO 157 -8,1 C -5,8 C 0,0 km/h (0 Bft)
08.03.2015 02:50 -5,0 C 1,0 C 79 % 79 % 1030,1 hPa 0,0 l/m 0,0 km/h (0 Bft) S-SO 157 -8,1 C -5,8 C 0,0 km/h (0 Bft)
08.03.2015 02:55 -5,1 C 1,0 C 79 % 79 % 1029,8 hPa 0,0 l/m 0,0 km/h (0 Bft) S-SO 157 -8,2 C -5,8 C 0,0 km/h (0 Bft)
08.03.2015 03:00 -5,2 C 1,0 C 79 % 79 % 1029,8 hPa 0,0 l/m 0,0 km/h (0 Bft) SO 135 -8,3 C -5,9 C 0,0 km/h (0 Bft)
08.03.2015 03:05 -5,3 C 1,0 C 79 % 79 % 1029,8 hPa 0,0 l/m 0,0 km/h (0 Bft) S-SO 157 -8,4 C -5,8 C 0,0 km/h (0 Bft)
08.03.2015 03:10 -5,1 C 1,0 C 79 % 79 % 1029,8 hPa 0,0 l/m 0,0 km/h (0 Bft) SO 135 -8,2 C -5,8 C 0,0 km/h (0 Bft)
08.03.2015 03:15 -5,0 C 1,0 C 79 % 79 % 1029,6 hPa 0,0 l/m 0,0 km/h (0 Bft) SO 135 -8,1 C -5,8 C 0,0 km/h (0 Bft)
08.03.2015 03:20 -4,9 C 1,0 C 79 % 79 % 1029,6 hPa 0,0 l/m 0,0 km/h (0 Bft) SO 135 -8,0 C -5,8 C 0,0 km/h (0 Bft)
08.03.2015 03:25 -4,7 C 1,0 C 79 % 79 % 1029,6 hPa 0,0 l/m 0,0 km/h (0 Bft) SO 135 -7,8 C -5,6 C 0,0 km/h (0 Bft)
08.03.2015 03:30 -4,5 C 1,0 C 80 % 80 % 1029,6 hPa 0,0 l/m 0,0 km/h (0 Bft) S 180 -7,4 C -5,4 C 0,0 km/h (0 Bft)
08.03.2015 03:35 -4,5 C 1,0 C 80 % 80 % 1029,3 hPa 0,0 l/m 0,0 km/h (0 Bft) S 180 -7,4 C -5,6 C 0,0 km/h (0 Bft)
08.03.2015 03:40 -4,8 C 1,0 C 79 % 79 % 1029,3 hPa 0,0 l/m 0,0 km/h (0 Bft) S 180 -7,9 C -5,8 C 0,0 km/h (0 Bft)
08.03.2015 03:45 -4,7 C 1,0 C 79 % 79 % 1029,3 hPa 0,0 l/m 0,0 km/h (0 Bft) S-SO 157 -7,8 C -5,8 C 0,0 km/h (0 Bft)
08.03.2015 03:50 -5,0 C 1,0 C 79 % 79 % 1029,3 hPa 0,0 l/m 0,0 km/h (0 Bft) S-SO 157 -8,1 C -5,9 C 0,0 km/h (0 Bft)
08.03.2015 03:55 -5,0 C 1,0 C 79 % 79 % 1029,2 hPa 0,0 l/m 0,0 km/h (0 Bft) S-SO 157 -8,1 C -6,0 C 0,0 km/h (0 Bft)
08.03.2015 04:00 -4,9 C 1,0 C 79 % 79 % 1029,2 hPa 0,0 l/m 0,0 km/h (0 Bft) S 180 -8,0 C -5,9 C 0,0 km/h (0 Bft)
08.03.2015 04:05 -5,0 C 1,0 C 79 % 79 % 1029,2 hPa 0,0 l/m 0,0 km/h (0 Bft) S-SW 202 -8,1 C -5,9 C 0,0 km/h (0 Bft)
08.03.2015 04:10 -5,3 C 1,0 C 79 % 79 % 1029,2 hPa 0,0 l/m 0,0 km/h (0 Bft) S-SW 202 -8,4 C -5,9 C 0,0 km/h (0 Bft)
08.03.2015 04:15 -5,2 C 1,0 C 79 % 79 % 1029,0 hPa 0,0 l/m 0,0 km/h (0 Bft) S-SW 202 -8,3 C -6,0 C 0,0 km/h (0 Bft)
08.03.2015 04:20 -5,3 C 1,0 C 79 % 79 % 1029,0 hPa 0,0 l/m 0,0 km/h (0 Bft) S-SW 202 -8,4 C -6,1 C 0,0 km/h (0 Bft)
08.03.2015 04:25 -5,1 C 1,0 C 79 % 79 % 1029,0 hPa 0,0 l/m 0,0 km/h (0 Bft) S-SO 157 -8,2 C -6,1 C 0,0 km/h (0 Bft)
08.03.2015 04:30 -5,3 C 1,0 C 79 % 79 % 1029,0 hPa 0,0 l/m 0,0 km/h (0 Bft) S-SO 157 -8,4 C -6,1 C 0,0 km/h (0 Bft)
08.03.2015 04:35 -5,4 C 1,0 C 79 % 79 % 1029,0 hPa 0,0 l/m 0,0 km/h (0 Bft) S-SO 157 -8,5 C -6,1 C 0,0 km/h (0 Bft)
08.03.2015 04:40 -5,3 C 1,0 C 79 % 79 % 1029,0 hPa 0,0 l/m 0,0 km/h (0 Bft) S 180 -8,4 C -6,2 C 0,0 km/h (0 Bft)
08.03.2015 04:45 -5,3 C 1,0 C 79 % 79 % 1029,0 hPa 0,0 l/m 0,0 km/h (0 Bft) S 180 -8,4 C -6,2 C 0,0 km/h (0 Bft)
08.03.2015 04:50 -5,1 C 1,0 C 79 % 79 % 1029,0 hPa 0,0 l/m 0,0 km/h (0 Bft) S 180 -8,2 C -6,2 C 0,0 km/h (0 Bft)
08.03.2015 04:55 -4,8 C 1,0 C 80 % 80 % 1028,9 hPa 0,0 l/m 0,0 km/h (0 Bft) S 180 -7,7 C -6,0 C 0,0 km/h (0 Bft)
08.03.2015 05:00 -5,0 C 1,0 C 79 % 79 % 1028,9 hPa 0,0 l/m 0,0 km/h (0 Bft) SW 225 -8,1 C -5,9 C 0,0 km/h (0 Bft)
08.03.2015 05:05 -5,0 C 1,0 C 79 % 79 % 1028,9 hPa 0,0 l/m 0,0 km/h (0 Bft) SW 225 -8,1 C -5,9 C 0,0 km/h (0 Bft)
08.03.2015 05:10 -5,2 C 1,0 C 79 % 79 % 1028,9 hPa 0,0 l/m 0,0 km/h (0 Bft) SW 225 -8,3 C -5,9 C 0,0 km/h (0 Bft)
08.03.2015 05:15 -5,1 C 1,0 C 79 % 79 % 1029,0 hPa 0,0 l/m 0,0 km/h (0 Bft) S-SW 202 -8,2 C -6,3 C 0,0 km/h (0 Bft)
08.03.2015 05:20 -4,8 C 1,0 C 80 % 80 % 1029,0 hPa 0,0 l/m 0,0 km/h (0 Bft) S 180 -7,7 C -6,1 C 0,0 km/h (0 Bft)
08.03.2015 05:25 -4,9 C 1,0 C 79 % 79 % 1029,0 hPa 0,0 l/m 0,0 km/h (0 Bft) S-SW 202 -8,0 C -6,0 C 0,0 km/h (0 Bft)
08.03.2015 05:30 -4,9 C 1,0 C 80 % 80 % 1029,0 hPa 0,0 l/m 0,0 km/h (0 Bft) S-SW 202 -7,8 C -6,0 C 0,0 km/h (0 Bft)
08.03.2015 05:35 -4,7 C 1,0 C 80 % 80 % 1029,1 hPa 0,0 l/m 0,0 km/h (0 Bft) S-SW 202 -7,6 C -6,0 C 0,0 km/h (0 Bft)
08.03.2015 05:40 -5,4 C 1,0 C 79 % 79 % 1029,1 hPa 0,0 l/m 0,0 km/h (0 Bft) S-SW 202 -8,5 C -6,2 C 0,0 km/h (0 Bft)
08.03.2015 05:45 -5,5 C 1,0 C 79 % 79 % 1029,1 hPa 0,0 l/m 0,0 km/h (0 Bft) S 180 -8,5 C -6,3 C 0,0 km/h (0 Bft)
08.03.2015 05:50 -5,1 C 0,8 C 80 % 80 % 1029,1 hPa 0,0 l/m 0,0 km/h (0 Bft) O-SO 112 -8,0 C -6,1 C 2,1 km/h (1 Bft)
08.03.2015 05:55 -5,5 C 1,0 C 79 % 79 % 1029,1 hPa 0,0 l/m 0,0 km/h (0 Bft) O-SO 112 -8,5 C -6,2 C 0,0 km/h (0 Bft)
08.03.2015 06:00 -5,7 C 0,8 C 80 % 80 % 1029,1 hPa 0,0 l/m 0,0 km/h (0 Bft) O-SO 112 -8,6 C -6,3 C 0,0 km/h (0 Bft)
08.03.2015 06:05 -5,8 C 0,8 C 80 % 80 % 1029,1 hPa 0,0 l/m 0,0 km/h (0 Bft) O-SO 112 -8,7 C -6,4 C 0,0 km/h (0 Bft)
08.03.2015 06:10 -5,3 C 0,8 C 80 % 80 % 1029,1 hPa 0,0 l/m 0,0 km/h (0 Bft) SO 135 -8,2 C -6,3 C 0,0 km/h (0 Bft)
08.03.2015 06:15 -5,4 C 0,8 C 80 % 80 % 1029,1 hPa 0,0 l/m 0,0 km/h (0 Bft) SO 135 -8,3 C -6,4 C 0,0 km/h (0 Bft)
08.03.2015 06:20 -5,7 C 0,8 C 80 % 80 % 1029,1 hPa 0,0 l/m 0,0 km/h (0 Bft) SO 135 -8,6 C -6,4 C 0,0 km/h (0 Bft)
08.03.2015 06:25 -5,7 C 0,8 C 80 % 80 % 1029,1 hPa 0,0 l/m 0,0 km/h (0 Bft) SO 135 -8,6 C -6,6 C 0,0 km/h (0 Bft)
08.03.2015 06:30 -5,5 C 0,8 C 80 % 80 % 1029,1 hPa 0,0 l/m 0,0 km/h (0 Bft) SO 135 -8,4 C -6,6 C 0,0 km/h (0 Bft)
08.03.2015 06:35 -5,6 C 0,9 C 80 % 80 % 1029,1 hPa 0,0 l/m 0,0 km/h (0 Bft) SO 135 -8,5 C -6,6 C 0,0 km/h (0 Bft)
08.03.2015 06:40 -6,0 C 0,9 C 80 % 80 % 1029,1 hPa 0,0 l/m 0,0 km/h (0 Bft) SO 135 -8,9 C -6,7 C 0,0 km/h (0 Bft)
08.03.2015 06:45 -5,8 C 0,9 C 80 % 80 % 1029,1 hPa 0,0 l/m 0,0 km/h (0 Bft) O-SO 112 -8,7 C -6,7 C 0,0 km/h (0 Bft)
08.03.2015 06:50 -5,9 C 0,9 C 80 % 80 % 1029,1 hPa 0,0 l/m 0,0 km/h (0 Bft) SO 135 -8,8 C -6,7 C 0,0 km/h (0 Bft)
08.03.2015 06:55 -5,9 C 0,9 C 80 % 80 % 1028,8 hPa 0,0 l/m 0,0 km/h (0 Bft) SO 135 -8,8 C -6,7 C 0,0 km/h (0 Bft)
08.03.2015 07:00 -5,7 C 0,9 C 80 % 80 % 1028,8 hPa 0,0 l/m 0,0 km/h (0 Bft) SO 135 -8,6 C -6,5 C 0,0 km/h (0 Bft)
08.03.2015 07:05 -5,6 C 0,8 C 80 % 80 % 1028,8 hPa 0,0 l/m 0,0 km/h (0 Bft) S 180 -8,5 C -6,4 C 0,0 km/h (0 Bft)
08.03.2015 07:10 -5,5 C 0,8 C 80 % 80 % 1028,8 hPa 0,0 l/m 0,0 km/h (0 Bft) S 180 -8,4 C -6,3 C 0,0 km/h (0 Bft)
08.03.2015 07:15 -5,6 C 0,8 C 80 % 80 % 1029,1 hPa 0,0 l/m 0,0 km/h (0 Bft) S 180 -8,5 C -6,1 C 0,0 km/h (0 Bft)
08.03.2015 07:20 -5,0 C 0,8 C 80 % 80 % 1029,1 hPa 0,0 l/m 0,0 km/h (0 Bft) S-SO 157 -7,9 C -5,9 C 0,0 km/h (0 Bft)
08.03.2015 07:25 -5,0 C 0,8 C 80 % 80 % 1029,1 hPa 0,0 l/m 0,0 km/h (0 Bft) S-SO 157 -7,9 C -5,8 C 0,0 km/h (0 Bft)
08.03.2015 07:30 -4,4 C 0,8 C 81 % 81 % 1029,1 hPa 0,0 l/m 0,0 km/h (0 Bft) SW 225 -7,2 C -5,6 C 0,0 km/h (0 Bft)
08.03.2015 07:35 -4,1 C 0,8 C 81 % 81 % 1028,9 hPa 0,0 l/m 0,0 km/h (0 Bft) SW 225 -6,9 C -5,2 C 0,0 km/h (0 Bft)
08.03.2015 07:40 -4,4 C 0,8 C 81 % 81 % 1028,9 hPa 0,0 l/m 0,0 km/h (0 Bft) SO 135 -7,2 C -5,0 C 0,0 km/h (0 Bft)
08.03.2015 07:45 -4,3 C 1,0 C 80 % 80 % 1028,9 hPa 0,0 l/m 0,0 km/h (0 Bft) O-SO 112 -7,2 C -4,9 C 0,0 km/h (0 Bft)
08.03.2015 07:50 -4,2 C 0,9 C 81 % 81 % 1028,9 hPa 0,0 l/m 0,0 km/h (0 Bft) S-SO 157 -7,0 C -4,7 C 0,0 km/h (0 Bft)
08.03.2015 07:55 -4,2 C 0,9 C 81 % 81 % 1028,8 hPa 0,0 l/m 0,0 km/h (0 Bft) S-SO 157 -7,0 C -4,6 C 0,0 km/h (0 Bft)
08.03.2015 08:00 -4,1 C 0,9 C 81 % 81 % 1028,8 hPa 0,0 l/m 0,0 km/h (0 Bft) W-SW 247 -6,9 C -4,6 C 0,0 km/h (0 Bft)
08.03.2015 08:05 -4,0 C 0,9 C 81 % 81 % 1028,8 hPa 0,0 l/m 0,0 km/h (0 Bft) SW 225 -6,8 C -4,5 C 0,0 km/h (0 Bft)
08.03.2015 08:10 -3,8 C 0,9 C 81 % 81 % 1028,8 hPa 0,0 l/m 0,0 km/h (0 Bft) SW 225 -6,6 C -4,4 C 0,0 km/h (0 Bft)
08.03.2015 08:15 -3,5 C 0,9 C 81 % 81 % 1028,8 hPa 0,0 l/m 0,0 km/h (0 Bft) SW 225 -6,3 C -4,3 C 0,0 km/h (0 Bft)
08.03.2015 08:20 -3,4 C 0,9 C 81 % 81 % 1028,8 hPa 0,0 l/m 0,0 km/h (0 Bft) SW 225 -6,2 C -4,0 C 0,0 km/h (0 Bft)
08.03.2015 08:25 -3,2 C 0,9 C 81 % 81 % 1028,8 hPa 0,0 l/m 0,0 km/h (0 Bft) W-SW 247 -6,0 C -3,8 C 0,0 km/h (0 Bft)
08.03.2015 08:30 -3,1 C 0,9 C 81 % 81 % 1028,8 hPa 0,0 l/m 0,0 km/h (0 Bft) SW 225 -5,9 C -3,4 C 0,0 km/h (0 Bft)
08.03.2015 08:35 -2,9 C 0,9 C 81 % 81 % 1028,4 hPa 0,0 l/m 0,0 km/h (0 Bft) S-SW 202 -5,7 C -3,3 C 0,0 km/h (0 Bft)
08.03.2015 08:40 -2,5 C 0,9 C 81 % 81 % 1028,4 hPa 0,0 l/m 0,0 km/h (0 Bft) S 180 -5,3 C -3,0 C 0,0 km/h (0 Bft)
08.03.2015 08:45 -1,9 C 0,9 C 82 % 82 % 1028,4 hPa 0,0 l/m 0,0 km/h (0 Bft) S 180 -4,6 C -2,5 C 0,0 km/h (0 Bft)
08.03.2015 08:50 -1,5 C 0,9 C 82 % 82 % 1028,4 hPa 0,0 l/m 0,0 km/h (0 Bft) SW 225 -4,2 C -2,2 C 0,0 km/h (0 Bft)
08.03.2015 08:55 -1,3 C 0,9 C 82 % 82 % 1028,4 hPa 0,0 l/m 0,0 km/h (0 Bft) O-SO 112 -4,0 C -1,9 C 0,0 km/h (0 Bft)
08.03.2015 09:00 -0,4 C 0,9 C 82 % 82 % 1028,4 hPa 0,0 l/m 0,0 km/h (0 Bft) SO 135 -3,1 C -0,9 C 0,0 km/h (0 Bft)
08.03.2015 09:05 0,2 C 0,9 C 82 % 82 % 1028,4 hPa 0,0 l/m 0,0 km/h (0 Bft) SO 135 -2,5 C 2,9 C 0,0 km/h (0 Bft)
08.03.2015 09:10 1,2 C 0,9 C 83 % 83 % 1028,4 hPa 0,0 l/m 0,0 km/h (0 Bft) O 90 -1,4 C 5,7 C 0,0 km/h (0 Bft)
08.03.2015 09:15 1,7 C 0,9 C 83 % 83 % 1028,2 hPa 0,0 l/m 0,0 km/h (0 Bft) O-SO 112 -0,9 C 6,4 C 0,0 km/h (0 Bft)
08.03.2015 09:20 2,7 C 0,9 C 83 % 83 % 1028,2 hPa 0,0 l/m 0,0 km/h (0 Bft) S-SO 157 0,1 C 6,8 C 0,0 km/h (0 Bft)
08.03.2015 09:25 3,1 C 0,9 C 83 % 83 % 1028,2 hPa 0,0 l/m 0,0 km/h (0 Bft) O-NO 67 0,5 C 8,2 C 0,0 km/h (0 Bft)
08.03.2015 09:30 3,5 C 0,9 C 82 % 82 % 1028,2 hPa 0,0 l/m 0,0 km/h (0 Bft) O 90 0,7 C 10,3 C 0,0 km/h (0 Bft)
08.03.2015 09:35 4,0 C 0,9 C 82 % 82 % 1028,6 hPa 0,0 l/m 0,0 km/h (0 Bft) O-NO 67 1,2 C 11,8 C 0,0 km/h (0 Bft)
08.03.2015 09:40 4,5 C 0,9 C 81 % 81 % 1028,6 hPa 0,0 l/m 0,0 km/h (0 Bft) O-SO 112 1,5 C 12,3 C 0,0 km/h (0 Bft)
08.03.2015 09:45 4,8 C 0,9 C 79 % 79 % 1028,6 hPa 0,0 l/m 0,0 km/h (0 Bft) O-SO 112 1,5 C 11,6 C 0,0 km/h (0 Bft)
08.03.2015 09:50 5,5 C 0,9 C 77 % 77 % 1028,6 hPa 0,0 l/m 0,0 km/h (0 Bft) O 90 1,8 C 10,8 C 0,0 km/h (0 Bft)
08.03.2015 09:55 5,9 C 0,9 C 76 % 76 % 1029,3 hPa 0,0 l/m 0,0 km/h (0 Bft) O 90 2,0 C 11,7 C 0,0 km/h (0 Bft)
08.03.2015 10:00 7,1 C 1,0 C 73 % 73 % 1029,3 hPa 0,0 l/m 0,0 km/h (0 Bft) SO 135 2,6 C 14,0 C 0,0 km/h (0 Bft)
08.03.2015 10:05 7,8 C 0,9 C 72 % 72 % 1029,3 hPa 0,0 l/m 0,0 km/h (0 Bft) SO 135 3,1 C 15,1 C 0,0 km/h (0 Bft)
08.03.2015 10:10 8,5 C 0,9 C 68 % 68 % 1029,3 hPa 0,0 l/m 0,0 km/h (0 Bft) SO 135 2,9 C 15,6 C 0,0 km/h (0 Bft)
08.03.2015 10:15 9,1 C 0,9 C 63 % 63 % 1029,8 hPa 0,0 l/m 0,5 km/h (0 Bft) W-SW 247 2,4 C 15,7 C 1,6 km/h (1 Bft)
08.03.2015 10:20 9,6 C 0,9 C 59 % 59 % 1029,8 hPa 0,0 l/m 0,5 km/h (0 Bft) SW 225 2,0 C 17,1 C 2,3 km/h (1 Bft)
08.03.2015 10:25 10,6 C 1,0 C 59 % 59 % 1029,8 hPa 0,0 l/m 0,2 km/h (0 Bft) SW 225 2,9 C 18,0 C 0,0 km/h (0 Bft)
08.03.2015 10:30 11,5 C 0,9 C 59 % 59 % 1029,8 hPa 0,0 l/m 0,0 km/h (0 Bft) S-SW 202 3,8 C 19,6 C 0,0 km/h (0 Bft)
08.03.2015 10:35 12,1 C 0,9 C 59 % 59 % 1030,0 hPa 0,0 l/m 0,0 km/h (0 Bft) S-SW 202 4,3 C 20,9 C 0,0 km/h (0 Bft)
08.03.2015 10:40 12,6 C 0,9 C 59 % 59 % 1030,0 hPa 0,0 l/m 0,0 km/h (0 Bft) SW 225 4,8 C 22,0 C 0,0 km/h (0 Bft)
08.03.2015 10:45 12,7 C 0,9 C 58 % 58 % 1030,0 hPa 0,0 l/m 0,0 km/h (0 Bft) W-SW 247 4,7 C 22,2 C 0,0 km/h (0 Bft)
08.03.2015 10:50 13,0 C 0,9 C 57 % 57 % 1030,0 hPa 0,0 l/m 0,2 km/h (0 Bft) W 270 4,7 C 22,2 C 0,0 km/h (0 Bft)
08.03.2015 10:55 13,5 C 0,9 C 56 % 56 % 1030,3 hPa 0,0 l/m 0,2 km/h (0 Bft) W 270 4,9 C 22,8 C 0,0 km/h (0 Bft)
08.03.2015 11:00 14,1 C 1,0 C 55 % 55 % 1030,3 hPa 0,0 l/m 0,0 km/h (0 Bft) W 270 5,2 C 23,8 C 0,0 km/h (0 Bft)
08.03.2015 11:05 14,1 C 1,0 C 55 % 55 % 1030,3 hPa 0,0 l/m 0,0 km/h (0 Bft) W 270 5,2 C 23,4 C 0,0 km/h (0 Bft)
08.03.2015 11:10 14,9 C 1,0 C 55 % 55 % 1030,3 hPa 0,0 l/m 0,0 km/h (0 Bft) NW 315 5,9 C 23,5 C 0,0 km/h (0 Bft)
08.03.2015 11:15 15,3 C 1,0 C 54 % 54 % 1030,6 hPa 0,0 l/m 0,0 km/h (0 Bft) NW 315 6,0 C 23,4 C 0,0 km/h (0 Bft)
08.03.2015 11:20 15,1 C 0,9 C 49 % 49 % 1030,6 hPa 0,0 l/m 0,8 km/h (0 Bft) O-NO 67 4,5 C 23,0 C 5,1 km/h (1 Bft)
08.03.2015 11:25 14,1 C 1,0 C 47 % 47 % 1030,6 hPa 0,0 l/m 1,6 km/h (1 Bft) N-NO 22 3,0 C 21,6 C 2,3 km/h (1 Bft)
08.03.2015 11:30 13,5 C 1,0 C 47 % 47 % 1030,6 hPa 0,0 l/m 2,7 km/h (1 Bft) NO 45 2,4 C 20,0 C 7,2 km/h (2 Bft)
08.03.2015 11:35 13,7 C 1,0 C 48 % 48 % 1030,5 hPa 0,0 l/m 2,7 km/h (1 Bft) N-NO 22 2,9 C 18,9 C 2,3 km/h (1 Bft)
08.03.2015 11:40 13,6 C 0,9 C 48 % 48 % 1030,5 hPa 0,0 l/m 3,4 km/h (1 Bft) N-NO 22 2,8 C 17,8 C 8,5 km/h (2 Bft)
08.03.2015 11:45 14,0 C 0,9 C 47 % 47 % 1030,5 hPa 0,0 l/m 3,1 km/h (1 Bft) NO 45 2,9 C 17,8 C 1,8 km/h (1 Bft)
08.03.2015 11:50 13,4 C 0,9 C 46 % 46 % 1030,5 hPa 0,0 l/m 3,2 km/h (1 Bft) N-NO 22 2,0 C 17,5 C 4,5 km/h (1 Bft)
08.03.2015 11:55 13,7 C 0,9 C 46 % 46 % 1030,2 hPa 0,0 l/m 3,2 km/h (1 Bft) N-NO 22 2,3 C 17,2 C 2,1 km/h (1 Bft)
08.03.2015 12:00 13,6 C 0,9 C 46 % 46 % 1030,2 hPa 0,0 l/m 2,6 km/h (1 Bft) N-NO 22 2,2 C 17,4 C 2,4 km/h (1 Bft)
08.03.2015 12:05 14,0 C 0,9 C 46 % 46 % 1030,2 hPa 0,0 l/m 2,1 km/h (1 Bft) NO 45 2,6 C 17,5 C 3,1 km/h (1 Bft)
08.03.2015 12:10 14,5 C 0,9 C 46 % 46 % 1030,2 hPa 0,0 l/m 2,6 km/h (1 Bft) N-NO 22 3,0 C 18,3 C 2,1 km/h (1 Bft)
08.03.2015 12:15 13,9 C 0,9 C 44 % 44 % 1030,1 hPa 0,0 l/m 3,1 km/h (1 Bft) NO 45 1,9 C 18,7 C 4,0 km/h (1 Bft)
08.03.2015 12:20 14,0 C 0,9 C 44 % 44 % 1030,1 hPa 0,0 l/m 3,2 km/h (1 Bft) N-NO 22 1,9 C 18,3 C 4,5 km/h (1 Bft)
08.03.2015 12:25 13,8 C 0,9 C 45 % 45 % 1030,1 hPa 0,0 l/m 3,2 km/h (1 Bft) SW 225 2,1 C 18,3 C 4,8 km/h (1 Bft)
08.03.2015 12:30 13,9 C 0,9 C 45 % 45 % 1030,1 hPa 0,0 l/m 2,9 km/h (1 Bft) N-NO 22 2,2 C 18,0 C 4,5 km/h (1 Bft)
08.03.2015 12:35 13,3 C 0,9 C 44 % 44 % 1029,8 hPa 0,0 l/m 3,5 km/h (1 Bft) NO 45 1,3 C 17,5 C 4,3 km/h (1 Bft)
08.03.2015 12:40 14,3 C 0,9 C 45 % 45 % 1029,8 hPa 0,0 l/m 3,4 km/h (1 Bft) N-NW 337 2,5 C 17,8 C 4,3 km/h (1 Bft)
08.03.2015 12:45 14,3 C 0,9 C 44 % 44 % 1029,8 hPa 0,0 l/m 2,9 km/h (1 Bft) O-NO 67 2,2 C 18,3 C 6,4 km/h (2 Bft)
08.03.2015 12:50 13,8 C 0,9 C 43 % 43 % 1029,8 hPa 0,0 l/m 3,5 km/h (1 Bft) N-NO 22 1,4 C 18,1 C 2,4 km/h (1 Bft)
08.03.2015 12:55 13,5 C 0,9 C 42 % 42 % 1029,7 hPa 0,0 l/m 4,8 km/h (1 Bft) N-NO 22 0,8 C 17,6 C 8,7 km/h (2 Bft)
08.03.2015 13:00 13,7 C 0,9 C 43 % 43 % 1029,7 hPa 0,0 l/m 4,5 km/h (1 Bft) NO 45 1,4 C 17,6 C 9,2 km/h (2 Bft)
08.03.2015 13:05 14,1 C 0,9 C 43 % 43 % 1029,7 hPa 0,0 l/m 3,9 km/h (1 Bft) O-NO 67 1,7 C 17,9 C 4,8 km/h (1 Bft)
08.03.2015 13:10 13,7 C 0,9 C 44 % 44 % 1029,7 hPa 0,0 l/m 4,0 km/h (1 Bft) N-NO 22 1,7 C 17,9 C 5,1 km/h (1 Bft)
08.03.2015 13:15 13,6 C 0,9 C 44 % 44 % 1029,4 hPa 0,0 l/m 5,0 km/h (1 Bft) N-NO 22 1,6 C 17,6 C 7,7 km/h (2 Bft)
08.03.2015 13:20 13,5 C 0,9 C 44 % 44 % 1029,4 hPa 0,0 l/m 5,5 km/h (1 Bft) N-NO 22 1,5 C 17,0 C 10,5 km/h (2 Bft)
08.03.2015 13:25 14,0 C 0,9 C 45 % 45 % 1029,4 hPa 0,0 l/m 4,5 km/h (1 Bft) NO 45 2,3 C 17,3 C 5,6 km/h (1 Bft)
08.03.2015 13:30 13,4 C 0,9 C 45 % 45 % 1029,4 hPa 0,0 l/m 4,7 km/h (1 Bft) NO 45 1,7 C 17,0 C 9,7 km/h (2 Bft)
08.03.2015 13:35 13,6 C 0,9 C 45 % 45 % 1029,2 hPa 0,0 l/m 4,8 km/h (1 Bft) NO 45 1,9 C 16,6 C 9,8 km/h (2 Bft)
08.03.2015 13:40 13,0 C 0,9 C 45 % 45 % 1029,2 hPa 0,0 l/m 5,8 km/h (2 Bft) O 90 1,4 C 15,5 C 4,7 km/h (1 Bft)
08.03.2015 13:45 13,6 C 0,9 C 44 % 44 % 1029,2 hPa 0,0 l/m 5,3 km/h (1 Bft) O-NO 67 1,6 C 15,1 C 4,5 km/h (1 Bft)
08.03.2015 13:50 13,7 C 0,9 C 44 % 44 % 1029,2 hPa 0,0 l/m 4,7 km/h (1 Bft) SO 135 1,7 C 14,5 C 1,8 km/h (1 Bft)
08.03.2015 13:55 13,9 C 0,9 C 44 % 44 % 1028,8 hPa 0,0 l/m 4,5 km/h (1 Bft) O-NO 67 1,9 C 14,3 C 4,0 km/h (1 Bft)
08.03.2015 14:00 14,0 C 0,9 C 44 % 44 % 1028,8 hPa 0,0 l/m 2,7 km/h (1 Bft) O-NO 67 1,9 C 14,5 C 13,2 km/h (3 Bft)
08.03.2015 14:05 14,5 C 0,9 C 44 % 44 % 1028,8 hPa 0,0 l/m 1,9 km/h (1 Bft) N-NO 22 2,4 C 15,0 C 2,6 km/h (1 Bft)
08.03.2015 14:10 14,2 C 0,9 C 44 % 44 % 1028,8 hPa 0,0 l/m 1,8 km/h (1 Bft) N-NO 22 2,1 C 15,4 C 4,3 km/h (1 Bft)
08.03.2015 14:15 14,0 C 0,9 C 43 % 43 % 1028,4 hPa 0,0 l/m 2,7 km/h (1 Bft) S 180 1,6 C 15,9 C 4,0 km/h (1 Bft)
08.03.2015 14:20 14,3 C 0,9 C 43 % 43 % 1028,4 hPa 0,0 l/m 3,2 km/h (1 Bft) N-NO 22 1,9 C 16,5 C 2,1 km/h (1 Bft)
08.03.2015 14:25 14,3 C 0,9 C 43 % 43 % 1028,4 hPa 0,0 l/m 3,1 km/h (1 Bft) N-NW 337 1,9 C 17,0 C 3,4 km/h (1 Bft)
08.03.2015 14:30 14,1 C 0,9 C 43 % 43 % 1028,4 hPa 0,0 l/m 2,4 km/h (1 Bft) O-NO 67 1,7 C 17,2 C 0,0 km/h (0 Bft)
08.03.2015 14:35 14,3 C 0,9 C 43 % 43 % 1028,1 hPa 0,0 l/m 2,1 km/h (1 Bft) N-NO 22 1,9 C 17,5 C 2,1 km/h (1 Bft)
08.03.2015 14:40 14,7 C 0,9 C 43 % 43 % 1028,1 hPa 0,0 l/m 1,3 km/h (1 Bft) O-SO 112 2,3 C 17,5 C 2,6 km/h (1 Bft)
08.03.2015 14:45 14,9 C 0,9 C 43 % 43 % 1028,1 hPa 0,0 l/m 1,0 km/h (0 Bft) O 90 2,4 C 17,9 C 1,8 km/h (1 Bft)
08.03.2015 14:50 14,0 C 0,9 C 43 % 43 % 1028,1 hPa 0,0 l/m 1,6 km/h (1 Bft) N-NO 22 1,6 C 17,6 C 1,9 km/h (1 Bft)
08.03.2015 14:55 14,4 C 0,9 C 43 % 43 % 1027,7 hPa 0,0 l/m 1,6 km/h (1 Bft) SO 135 2,0 C 17,1 C 0,0 km/h (0 Bft)
08.03.2015 15:00 14,2 C 0,9 C 43 % 43 % 1027,7 hPa 0,0 l/m 1,0 km/h (0 Bft) O-SO 112 1,8 C 18,0 C 0,0 km/h (0 Bft)
08.03.2015 15:05 14,4 C 0,9 C 43 % 43 % 1027,7 hPa 0,0 l/m 1,0 km/h (0 Bft) SO 135 2,0 C 18,1 C 0,0 km/h (0 Bft)
08.03.2015 15:10 14,4 C 0,9 C 43 % 43 % 1027,7 hPa 0,0 l/m 1,1 km/h (1 Bft) N-NO 22 2,0 C 18,3 C 1,6 km/h (1 Bft)
08.03.2015 15:15 14,3 C 0,9 C 42 % 42 % 1027,0 hPa 0,0 l/m 1,4 km/h (1 Bft) NO 45 1,6 C 18,2 C 3,5 km/h (1 Bft)
08.03.2015 15:20 14,9 C 0,9 C 42 % 42 % 1027,0 hPa 0,0 l/m 1,6 km/h (1 Bft) O-NO 67 2,1 C 18,2 C 2,7 km/h (1 Bft)
08.03.2015 15:25 14,6 C 0,9 C 43 % 43 % 1027,0 hPa 0,0 l/m 1,1 km/h (1 Bft) O-SO 112 2,2 C 18,2 C 0,0 km/h (0 Bft)
08.03.2015 15:30 13,0 C 0,9 C 43 % 43 % 1027,0 hPa 0,0 l/m 1,4 km/h (1 Bft) N-NO 22 0,7 C 17,4 C 0,0 km/h (0 Bft)
08.03.2015 15:35 13,1 C 0,9 C 42 % 42 % 1026,8 hPa 0,0 l/m 1,4 km/h (1 Bft) O-SO 112 0,5 C 16,9 C 0,0 km/h (0 Bft)
08.03.2015 15:40 12,7 C 0,9 C 40 % 40 % 1026,8 hPa 0,0 l/m 1,3 km/h (1 Bft) N-NO 22 -0,5 C 16,9 C 3,4 km/h (1 Bft)
08.03.2015 15:45 11,9 C 0,9 C 39 % 39 % 1026,8 hPa 0,0 l/m 2,1 km/h (1 Bft) N-NO 22 -1,6 C 16,1 C 6,1 km/h (2 Bft)
08.03.2015 15:50 11,7 C 0,9 C 40 % 40 % 1026,8 hPa 0,0 l/m 3,2 km/h (1 Bft) NO 45 -1,4 C 14,6 C 3,2 km/h (1 Bft)
08.03.2015 15:55 11,5 C 0,8 C 40 % 40 % 1026,6 hPa 0,0 l/m 2,1 km/h (1 Bft) N-NO 22 -1,6 C 14,2 C 0,0 km/h (0 Bft)
08.03.2015 16:00 11,2 C 0,8 C 41 % 41 % 1026,6 hPa 0,0 l/m 1,0 km/h (0 Bft) O-NO 67 -1,6 C 13,2 C 0,0 km/h (0 Bft)
08.03.2015 16:05 11,1 C 0,8 C 42 % 42 % 1026,6 hPa 0,0 l/m 0,6 km/h (0 Bft) SO 135 -1,3 C 12,7 C 0,0 km/h (0 Bft)
08.03.2015 16:10 10,9 C 0,8 C 43 % 43 % 1026,6 hPa 0,0 l/m 0,3 km/h (0 Bft) O-NO 67 -1,2 C 12,3 C 2,7 km/h (1 Bft)
08.03.2015 16:15 11,0 C 0,9 C 44 % 44 % 1026,2 hPa 0,0 l/m 0,3 km/h (0 Bft) O 90 -0,8 C 12,3 C 0,0 km/h (0 Bft)
08.03.2015 16:20 11,1 C 0,9 C 45 % 45 % 1026,2 hPa 0,0 l/m 0,2 km/h (0 Bft) SO 135 -0,4 C 12,9 C 0,0 km/h (0 Bft)
08.03.2015 16:25 10,8 C 0,9 C 46 % 46 % 1026,2 hPa 0,0 l/m 0,0 km/h (0 Bft) O-NO 67 -0,3 C 13,2 C 1,9 km/h (1 Bft)
08.03.2015 16:30 10,7 C 0,9 C 46 % 46 % 1026,2 hPa 0,0 l/m 0,2 km/h (0 Bft) O-NO 67 -0,4 C 13,0 C 0,0 km/h (0 Bft)
08.03.2015 16:35 10,6 C 0,9 C 46 % 46 % 1026,0 hPa 0,0 l/m 0,3 km/h (0 Bft) N-NO 22 -0,5 C 13,0 C 0,0 km/h (0 Bft)
08.03.2015 16:40 10,3 C 0,9 C 47 % 47 % 1026,0 hPa 0,0 l/m 0,2 km/h (0 Bft) SO 135 -0,5 C 13,0 C 2,3 km/h (1 Bft)
08.03.2015 16:45 10,2 C 0,9 C 47 % 47 % 1026,0 hPa 0,0 l/m 0,2 km/h (0 Bft) O-SO 112 -0,6 C 12,6 C 0,0 km/h (0 Bft)
08.03.2015 16:50 9,6 C 0,9 C 48 % 48 % 1026,0 hPa 0,0 l/m 0,3 km/h (0 Bft) O-SO 112 -0,9 C 11,7 C 0,0 km/h (0 Bft)
08.03.2015 16:55 9,4 C 0,9 C 49 % 49 % 1026,0 hPa 0,0 l/m 0,3 km/h (0 Bft) O-SO 112 -0,8 C 11,1 C 1,6 km/h (1 Bft)
08.03.2015 17:00 9,0 C 0,9 C 50 % 50 % 1026,0 hPa 0,0 l/m 0,2 km/h (0 Bft) O 90 -0,9 C 10,3 C 0,0 km/h (0 Bft)
08.03.2015 17:05 8,9 C 0,9 C 51 % 51 % 1026,0 hPa 0,0 l/m 0,2 km/h (0 Bft) SO 135 -0,7 C 9,9 C 1,9 km/h (1 Bft)
08.03.2015 17:10 8,6 C 0,9 C 51 % 51 % 1026,0 hPa 0,0 l/m 0,3 km/h (0 Bft) SO 135 -1,0 C 9,5 C 0,0 km/h (0 Bft)
08.03.2015 17:15 8,4 C 0,9 C 52 % 52 % 1025,9 hPa 0,0 l/m 0,5 km/h (0 Bft) O-SO 112 -0,9 C 9,1 C 1,8 km/h (1 Bft)
08.03.2015 17:20 8,1 C 0,9 C 52 % 52 % 1025,9 hPa 0,0 l/m 0,3 km/h (0 Bft) SO 135 -1,2 C 8,6 C 0,0 km/h (0 Bft)
08.03.2015 17:25 7,9 C 0,9 C 53 % 53 % 1025,9 hPa 0,0 l/m 0,3 km/h (0 Bft) SO 135 -1,1 C 8,3 C 0,0 km/h (0 Bft)
08.03.2015 17:30 7,6 C 0,8 C 53 % 53 % 1025,9 hPa 0,0 l/m 0,5 km/h (0 Bft) S-SO 157 -1,4 C 7,8 C 0,0 km/h (0 Bft)
08.03.2015 17:35 7,3 C 0,8 C 54 % 54 % 1026,1 hPa 0,0 l/m 0,3 km/h (0 Bft) SO 135 -1,4 C 7,4 C 0,0 km/h (0 Bft)
08.03.2015 17:40 7,0 C 0,8 C 54 % 54 % 1026,1 hPa 0,0 l/m 0,2 km/h (0 Bft) SO 135 -1,7 C 7,0 C 0,0 km/h (0 Bft)
08.03.2015 17:45 6,8 C 0,8 C 55 % 55 % 1026,1 hPa 0,0 l/m 0,2 km/h (0 Bft) SO 135 -1,6 C 6,6 C 0,0 km/h (0 Bft)
08.03.2015 17:50 6,6 C 0,8 C 56 % 56 % 1026,1 hPa 0,0 l/m 0,3 km/h (0 Bft) SO 135 -1,5 C 6,4 C 0,0 km/h (0 Bft)
08.03.2015 17:55 6,3 C 0,9 C 56 % 56 % 1025,9 hPa 0,0 l/m 0,5 km/h (0 Bft) O-SO 112 -1,8 C 6,0 C 0,0 km/h (0 Bft)
08.03.2015 18:00 6,1 C 0,9 C 57 % 57 % 1025,9 hPa 0,0 l/m 0,3 km/h (0 Bft) O 90 -1,8 C 5,7 C 0,0 km/h (0 Bft)
08.03.2015 18:05 5,9 C 0,9 C 57 % 57 % 1025,9 hPa 0,0 l/m 0,2 km/h (0 Bft) O 90 -2,0 C 5,5 C 0,0 km/h (0 Bft)
08.03.2015 18:10 5,7 C 0,9 C 57 % 57 % 1025,9 hPa 0,0 l/m 0,0 km/h (0 Bft) SO 135 -2,1 C 5,1 C 0,0 km/h (0 Bft)
08.03.2015 18:15 5,6 C 0,9 C 58 % 58 % 1026,1 hPa 0,0 l/m 0,0 km/h (0 Bft) O-SO 112 -2,0 C 4,8 C 0,0 km/h (0 Bft)
08.03.2015 18:20 5,1 C 0,9 C 58 % 58 % 1026,1 hPa 0,0 l/m 0,0 km/h (0 Bft) O 90 -2,5 C 4,4 C 0,0 km/h (0 Bft)
08.03.2015 18:25 4,4 C 0,9 C 58 % 58 % 1026,1 hPa 0,0 l/m 0,0 km/h (0 Bft) O 90 -3,1 C 4,0 C 0,0 km/h (0 Bft)
08.03.2015 18:30 4,2 C 0,9 C 59 % 59 % 1026,1 hPa 0,0 l/m 0,0 km/h (0 Bft) O-SO 112 -3,1 C 3,3 C 0,0 km/h (0 Bft)
08.03.2015 18:35 4,4 C 0,9 C 59 % 59 % 1025,9 hPa 0,0 l/m 0,3 km/h (0 Bft) SO 135 -2,9 C 3,2 C 0,0 km/h (0 Bft)
08.03.2015 18:40 4,5 C 0,9 C 59 % 59 % 1025,9 hPa 0,0 l/m 0,5 km/h (0 Bft) O-SO 112 -2,8 C 3,3 C 0,0 km/h (0 Bft)
08.03.2015 18:45 4,1 C 0,9 C 59 % 59 % 1025,9 hPa 0,0 l/m 0,2 km/h (0 Bft) O-NO 67 -3,2 C 3,2 C 1,6 km/h (1 Bft)
08.03.2015 18:50 3,2 C 0,9 C 60 % 60 % 1025,9 hPa 0,0 l/m 0,2 km/h (0 Bft) S 180 -3,8 C 2,7 C 1,6 km/h (1 Bft)
08.03.2015 18:55 2,8 C 0,8 C 61 % 61 % 1026,1 hPa 0,0 l/m 0,2 km/h (0 Bft) S 180 -4,0 C 2,2 C 0,0 km/h (0 Bft)
08.03.2015 19:00 2,7 C 0,8 C 62 % 62 % 1026,1 hPa 0,0 l/m 0,2 km/h (0 Bft) S 180 -3,8 C 1,7 C 0,0 km/h (0 Bft)
08.03.2015 19:05 2,6 C 0,8 C 63 % 63 % 1026,1 hPa 0,0 l/m 0,0 km/h (0 Bft) S 180 -3,7 C 1,5 C 0,0 km/h (0 Bft)
08.03.2015 19:10 2,5 C 0,8 C 64 % 64 % 1026,1 hPa 0,0 l/m 0,0 km/h (0 Bft) S-SO 157 -3,6 C 1,2 C 0,0 km/h (0 Bft)
08.03.2015 19:15 2,1 C 0,8 C 64 % 64 % 1025,9 hPa 0,0 l/m 0,0 km/h (0 Bft) S-SO 157 -4,0 C 1,0 C 0,0 km/h (0 Bft)
08.03.2015 19:20 1,7 C 0,8 C 65 % 65 % 1025,9 hPa 0,0 l/m 0,0 km/h (0 Bft) SO 135 -4,2 C 0,6 C 0,0 km/h (0 Bft)
08.03.2015 19:25 1,6 C 0,8 C 65 % 65 % 1025,9 hPa 0,0 l/m 0,0 km/h (0 Bft) SO 135 -4,3 C 0,4 C 0,0 km/h (0 Bft)
08.03.2015 19:30 1,4 C 0,8 C 66 % 66 % 1025,9 hPa 0,0 l/m 0,0 km/h (0 Bft) SO 135 -4,2 C 0,2 C 0,0 km/h (0 Bft)
08.03.2015 19:35 1,2 C 0,9 C 66 % 66 % 1026,0 hPa 0,0 l/m 0,0 km/h (0 Bft) S-SO 157 -4,4 C 0,0 C 0,0 km/h (0 Bft)
08.03.2015 19:40 0,8 C 0,9 C 66 % 66 % 1026,0 hPa 0,0 l/m 0,0 km/h (0 Bft) S-SO 157 -4,8 C -0,4 C 0,0 km/h (0 Bft)
08.03.2015 19:45 0,6 C 0,9 C 67 % 67 % 1026,0 hPa 0,0 l/m 0,0 km/h (0 Bft) S-SO 157 -4,8 C -0,6 C 0,0 km/h (0 Bft)
08.03.2015 19:50 0,6 C 0,9 C 68 % 68 % 1026,0 hPa 0,0 l/m 0,0 km/h (0 Bft) SO 135 -4,6 C -0,7 C 0,0 km/h (0 Bft)
08.03.2015 19:55 0,7 C 0,9 C 68 % 68 % 1026,0 hPa 0,0 l/m 0,0 km/h (0 Bft) SO 135 -4,5 C -0,8 C 0,0 km/h (0 Bft)
08.03.2015 20:00 0,4 C 0,9 C 68 % 68 % 1026,0 hPa 0,0 l/m 0,0 km/h (0 Bft) SO 135 -4,8 C -1,0 C 0,0 km/h (0 Bft)
08.03.2015 20:05 0,4 C 0,9 C 69 % 69 % 1026,0 hPa 0,0 l/m 0,0 km/h (0 Bft) SO 135 -4,6 C -1,0 C 0,0 km/h (0 Bft)
08.03.2015 20:10 0,5 C 0,9 C 69 % 69 % 1026,0 hPa 0,0 l/m 0,0 km/h (0 Bft) SO 135 -4,5 C -0,9 C 0,0 km/h (0 Bft)
08.03.2015 20:15 0,3 C 0,9 C 69 % 69 % 1026,0 hPa 0,0 l/m 0,0 km/h (0 Bft) SO 135 -4,7 C -1,0 C 0,0 km/h (0 Bft)
08.03.2015 20:20 0,2 C 0,9 C 70 % 70 % 1026,0 hPa 0,0 l/m 0,0 km/h (0 Bft) S-SO 157 -4,6 C -1,1 C 0,0 km/h (0 Bft)
08.03.2015 20:25 0,5 C 0,9 C 70 % 70 % 1026,0 hPa 0,0 l/m 0,0 km/h (0 Bft) O-SO 112 -4,3 C -1,0 C 0,0 km/h (0 Bft)
08.03.2015 20:30 0,3 C 0,9 C 70 % 70 % 1026,0 hPa 0,0 l/m 0,0 km/h (0 Bft) O-NO 67 -4,5 C -0,8 C 0,0 km/h (0 Bft)
08.03.2015 20:35 0,0 C 0,9 C 70 % 70 % 1026,3 hPa 0,0 l/m 0,0 km/h (0 Bft) O 90 -4,8 C -1,0 C 0,0 km/h (0 Bft)
08.03.2015 20:40 0,6 C 0,9 C 71 % 71 % 1026,3 hPa 0,0 l/m 0,0 km/h (0 Bft) O-SO 112 -4,0 C -0,9 C 0,0 km/h (0 Bft)
08.03.2015 20:45 0,8 C 0,9 C 72 % 72 % 1026,3 hPa 0,0 l/m 1,0 km/h (0 Bft) SO 135 -3,7 C -0,5 C 3,1 km/h (1 Bft)
08.03.2015 20:50 0,8 C 0,9 C 72 % 72 % 1026,3 hPa 0,0 l/m 1,8 km/h (1 Bft) O-NO 67 -3,7 C -0,1 C 0,0 km/h (0 Bft)
08.03.2015 20:55 0,4 C 0,9 C 71 % 71 % 1026,2 hPa 0,0 l/m 1,4 km/h (1 Bft) SO 135 -4,2 C -0,3 C 2,9 km/h (1 Bft)
08.03.2015 21:00 0,7 C 0,9 C 72 % 72 % 1026,2 hPa 0,0 l/m 1,8 km/h (1 Bft) SO 135 -3,8 C -0,1 C 2,9 km/h (1 Bft)
08.03.2015 21:05 0,8 C 0,9 C 72 % 72 % 1026,2 hPa 0,0 l/m 2,7 km/h (1 Bft) SO 135 -3,7 C -0,2 C 2,7 km/h (1 Bft)
08.03.2015 21:10 0,7 C 0,9 C 71 % 71 % 1026,2 hPa 0,0 l/m 1,6 km/h (1 Bft) NO 45 -3,9 C 0,1 C 0,0 km/h (0 Bft)
08.03.2015 21:15 0,5 C 0,9 C 72 % 72 % 1026,1 hPa 0,0 l/m 1,1 km/h (1 Bft) SO 135 -3,9 C -0,3 C 2,1 km/h (1 Bft)
08.03.2015 21:20 0,7 C 0,9 C 73 % 73 % 1026,1 hPa 0,0 l/m 1,9 km/h (1 Bft) SO 135 -3,6 C -0,3 C 2,3 km/h (1 Bft)
08.03.2015 21:25 0,7 C 0,9 C 73 % 73 % 1026,1 hPa 0,0 l/m 2,1 km/h (1 Bft) SO 135 -3,6 C -0,3 C 1,6 km/h (1 Bft)
08.03.2015 21:30 0,3 C 0,9 C 72 % 72 % 1026,1 hPa 0,0 l/m 1,0 km/h (0 Bft) O-SO 112 -4,1 C -0,4 C 0,0 km/h (0 Bft)
08.03.2015 21:35 0,5 C 0,9 C 73 % 73 % 1026,2 hPa 0,0 l/m 1,0 km/h (0 Bft) SO 135 -3,8 C -0,6 C 1,8 km/h (1 Bft)
08.03.2015 21:40 0,4 C 0,9 C 73 % 73 % 1026,2 hPa 0,0 l/m 1,4 km/h (1 Bft) SO 135 -3,9 C -0,6 C 2,1 km/h (1 Bft)
08.03.2015 21:45 0,4 C 0,9 C 73 % 73 % 1026,2 hPa 0,0 l/m 0,8 km/h (0 Bft) O-NO 67 -3,9 C -0,6 C 0,0 km/h (0 Bft)
08.03.2015 21:50 -0,3 C 0,9 C 72 % 72 % 1026,2 hPa 0,0 l/m 0,2 km/h (0 Bft) O-NO 67 -4,7 C -1,1 C 0,0 km/h (0 Bft)
08.03.2015 21:55 -0,6 C 0,9 C 72 % 72 % 1026,2 hPa 0,0 l/m 0,0 km/h (0 Bft) O-NO 67 -5,0 C -1,4 C 0,0 km/h (0 Bft)
08.03.2015 22:00 -0,9 C 0,9 C 72 % 72 % 1026,2 hPa 0,0 l/m 0,0 km/h (0 Bft) O-NO 67 -5,3 C -1,9 C 0,0 km/h (0 Bft)
08.03.2015 22:05 -0,9 C 0,9 C 73 % 73 % 1026,2 hPa 0,0 l/m 0,0 km/h (0 Bft) O-NO 67 -5,1 C -2,1 C 0,0 km/h (0 Bft)
08.03.2015 22:10 -1,2 C 0,9 C 73 % 73 % 1026,2 hPa 0,0 l/m 0,0 km/h (0 Bft) O-NO 67 -5,4 C -2,3 C 0,0 km/h (0 Bft)
08.03.2015 22:15 -1,2 C 0,9 C 73 % 73 % 1026,2 hPa 0,0 l/m 0,0 km/h (0 Bft) O-NO 67 -5,4 C -2,4 C 0,0 km/h (0 Bft)
08.03.2015 22:20 -1,2 C 0,9 C 73 % 73 % 1026,2 hPa 0,0 l/m 0,0 km/h (0 Bft) O 90 -5,4 C -2,5 C 0,0 km/h (0 Bft)
08.03.2015 22:25 -0,9 C 0,9 C 74 % 74 % 1026,2 hPa 0,0 l/m 0,0 km/h (0 Bft) SO 135 -4,9 C -2,4 C 0,0 km/h (0 Bft)
08.03.2015 22:30 -0,7 C 0,9 C 74 % 74 % 1026,2 hPa 0,0 l/m 0,0 km/h (0 Bft) O-NO 67 -4,7 C -2,1 C 0,0 km/h (0 Bft)
08.03.2015 22:35 -1,1 C 0,9 C 74 % 74 % 1025,8 hPa 0,0 l/m 0,0 km/h (0 Bft) O-NO 67 -5,1 C -2,2 C 0,0 km/h (0 Bft)
08.03.2015 22:40 -1,4 C 0,9 C 74 % 74 % 1025,8 hPa 0,0 l/m 0,0 km/h (0 Bft) O-NO 67 -5,4 C -2,4 C 0,0 km/h (0 Bft)
08.03.2015 22:45 -1,4 C 0,9 C 74 % 74 % 1025,8 hPa 0,0 l/m 0,0 km/h (0 Bft) O-NO 67 -5,4 C -2,6 C 0,0 km/h (0 Bft)
08.03.2015 22:50 -1,6 C 0,9 C 74 % 74 % 1025,8 hPa 0,0 l/m 0,0 km/h (0 Bft) O-NO 67 -5,6 C -2,7 C 0,0 km/h (0 Bft)
08.03.2015 22:55 -1,6 C 0,9 C 75 % 75 % 1025,8 hPa 0,0 l/m 0,0 km/h (0 Bft) O-NO 67 -5,4 C -2,8 C 0,0 km/h (0 Bft)
08.03.2015 23:00 -1,6 C 0,9 C 75 % 75 % 1025,8 hPa 0,0 l/m 0,0 km/h (0 Bft) O-NO 67 -5,4 C -2,8 C 0,0 km/h (0 Bft)
08.03.2015 23:05 -1,9 C 0,9 C 74 % 74 % 1025,8 hPa 0,0 l/m 0,0 km/h (0 Bft) O-NO 67 -5,9 C -2,9 C 0,0 km/h (0 Bft)
08.03.2015 23:10 -2,0 C 0,9 C 75 % 75 % 1025,8 hPa 0,0 l/m 0,0 km/h (0 Bft) O-NO 67 -5,8 C -3,0 C 0,0 km/h (0 Bft)
08.03.2015 23:15 -2,1 C 0,9 C 75 % 75 % 1025,6 hPa 0,0 l/m 0,0 km/h (0 Bft) O-NO 67 -5,9 C -3,1 C 0,0 km/h (0 Bft)
08.03.2015 23:20 -2,3 C 0,9 C 75 % 75 % 1025,6 hPa 0,0 l/m 0,0 km/h (0 Bft) O-NO 67 -6,1 C -3,2 C 0,0 km/h (0 Bft)
08.03.2015 23:25 -2,1 C 0,9 C 75 % 75 % 1025,6 hPa 0,0 l/m 0,0 km/h (0 Bft) O-NO 67 -5,9 C -3,2 C 0,0 km/h (0 Bft)
08.03.2015 23:30 -2,0 C 0,9 C 76 % 76 % 1025,6 hPa 0,0 l/m 0,0 km/h (0 Bft) O-NO 67 -5,6 C -3,2 C 0,0 km/h (0 Bft)
08.03.2015 23:35 -2,1 C 0,9 C 76 % 76 % 1025,4 hPa 0,0 l/m 0,0 km/h (0 Bft) O-NO 67 -5,7 C -3,2 C 0,0 km/h (0 Bft)
08.03.2015 23:40 -2,0 C 0,9 C 76 % 76 % 1025,4 hPa 0,0 l/m 0,0 km/h (0 Bft) SO 135 -5,6 C -3,2 C 0,0 km/h (0 Bft)
08.03.2015 23:45 -2,0 C 0,9 C 76 % 76 % 1025,4 hPa 0,0 l/m 0,0 km/h (0 Bft) S-SO 157 -5,6 C -3,3 C 0,0 km/h (0 Bft)
08.03.2015 23:50 -1,9 C 0,9 C 76 % 76 % 1025,4 hPa 0,0 l/m 0,0 km/h (0 Bft) O-NO 67 -5,6 C -3,2 C 0,0 km/h (0 Bft)
08.03.2015 23:55 -1,7 C 0,9 C 76 % 76 % 1025,4 hPa 0,0 l/m 0,0 km/h (0 Bft) O-SO 112 -5,4 C -3,1 C 0,0 km/h (0 Bft)
_ Min-Zeit 06:40 19:30 15:45 15:45 23:55 - 23:55 - - 06:40 06:55 23:55
Minimum _ -6,0 C 0,8 C 39 % 39 % 1025,4 hPa - 0,0 km/h (0 Bft) - - -8,9 C -6,7 C 0,0 km/h (0 Bft)
_ Max-Zeit 11:15 11:35 09:25 09:25 00:10 23:55 13:40 - - 11:15 11:00 14:00
Maximum _ 15,3 C 1,0 C 83 % 83 % 1030,8 hPa 0,0 l/m 5,8 km/h
O (2 Bft)
- - 6,0 C 23,8 C 13,2 km/h
O-NO (3 Bft)
Durchschnitt _ 2,6 C 0,9 C 66 % 66 % 1028,2 hPa #0,0 l/m 0,7 km/h (0 Bft) N-NO - -3,5 C 3,5 C 0,9 km/h (0 Bft)